Regional Weather Roundup
Issued by NWS

Home | Current Version | Previous Version | Text Only | Print | Product List | Glossary On
Versions: 1 2 3 4 5 6 7 8 9 10 11 12 13 14 15 16 17 18 19 20 21 22 23 24 25 26 27 28 29 30 31 32 33 34 35 36 37 38 39 40 41 42 43 44 45 46 47 48 49 50
000
ASUS44 KLIX 220313
RWRLA
LOUISIANA WEATHER ROUNDUP
NATIONAL WEATHER SERVICE NEW ORLEANS LA
1000 PM CDT THU SEP 21 2017

NOTE: "FAIR" INDICATES FEW OR NO CLOUDS BELOW 12,000 FEET WITH NO
      SIGNIFICANT WEATHER AND/OR OBSTRUCTIONS TO VISIBILITY.
      SKY/WX - SKY CONDITION AND SIGNIFICANT WEATHER.
      TMP - AIR TEMPERATURE.    DP   - DEWPOINT TEMPERATURE.
      RH  - RELATIVE HUMIDITY.  PRES - PRESSURE.
      HX  - HEAT INDEX.         WCI  - WIND CHILL INDEX.

*  THESE STATIONS ARE NOT NWS OR FAA STATIONS AND ARE NOT UNDER
   NWS QUALITY CONTROL.

LAZ040-048-061>063-065-066-069-220400-
SOUTHEAST LOUISIANA

CITY           SKY/WX    TMP DP  RH WIND       PRES   REMARKS
N.O. INTL ARPT PTCLDY    79  73  82 SW3       29.98R
N.O. LAKEFRONT CLEAR     82  74  76 E3        29.98R
N.O. DOWNTOWN* FAIR      84  73  69 CALM      29.99R
RESERVE*       FAIR      78  74  89 W3        29.99R
SLIDELL        CLEAR     74  72  93 CALM      29.98R
BATON ROUGE    CLOUDY    74  71  91 CALM      29.98R
BOOTHVILLE     CLEAR     80  76  87 CALM      29.98R
BELLE CHASSE   PTCLDY    75  73  93 CALM      29.98R
BOGALUSA*      FAIR      73  69  87 CALM      30.00S
GALLIANO*      PTCLDY    76  71  84 CALM      29.98R
NEW ROADS*     FAIR      76  69  79 CALM      29.99R
GONZALES*      FAIR      75  72  89 CALM      29.98R
HAMMOND*       CLEAR     73  68  83 CALM      29.99R
HOUMA*         NOT AVBL
PORT FOURCHON* CLEAR     82  75  78 E5        29.98S

$$

LAZ041-044-053-054-220400-
SOUTHWEST LOUISIANA

CITY           SKY/WX    TMP DP  RH WIND       PRES   REMARKS
LAKE CHARLES   CLEAR     76  74  93 CALM      29.96S
LAFAYETTE      CLEAR     78  73  84 SW3       29.97S
PATTERSON      CLEAR     75  74  96 CALM      29.98S
SALT POINT       N/A     79  75  87 CALM      29.96S
NEW IBERIA     CLEAR     75  72  90 CALM      29.98R
CHENAULT AIRPK CLEAR     75  73  94 CALM      29.97S

$$

LAZ027-028-220400-
CENTRAL LOUISIANA

CITY           SKY/WX    TMP DP  RH WIND       PRES   REMARKS
FORT POLK      CLEAR     78  73  84 CALM      29.97S
ALEXANDRIA INT CLEAR     77  71  82 CALM      29.96R
ALEXANDRIA     CLEAR     74  74 100 CALM      29.97S

$$

LAZ001-002-220400-
NORTHWEST LOUISIANA

CITY           SKY/WX    TMP DP  RH WIND       PRES   REMARKS
SHREVEPORT     CLEAR     77  70  79 SW3       29.98R
BARKSDALE AFB  CLEAR     77  70  78 CALM      30.01R
DTN SHREVEPORT CLEAR     80  70  71 SW5       29.98R

$$

LAZ014-016-220400-
NORTHEAST LOUISIANA

CITY           SKY/WX    TMP DP  RH WIND       PRES   REMARKS
MONROE         CLEAR     77  73  87 CALM      29.98S
TALLULAH       CLEAR     73  72  96 CALM      29.98S FOG

$$




USA.gov is the U.S. government's official web portal to all federal, state and local government web resources and services.